| time (UTC) | temp F | wind direction | speed MPH | gust MPH | rain 1hr in | rain 24hr in | rain mn in | humidity % | barometer mb |
| 20260510044552 | 65 | 75 | 0.0 | 7.0 | 0.00 | 0.00 | 0.00 | 50 | 1028.0 |
| 20260510044041 | 65 | 125 | 1.0 | 7.0 | 0.00 | 0.00 | 0.00 | 50 | 1028.1 |
| 20260510043539 | 65 | 150 | 0.0 | 4.0 | 0.00 | 0.00 | 0.00 | 49 | 1028.1 |
| 20260510043054 | 65 | 141 | 1.0 | 6.0 | 0.00 | 0.00 | 0.00 | 49 | 1028.2 |
| 20260510042539 | 65 | 101 | 2.0 | 8.0 | 0.00 | 0.00 | 0.00 | 50 | 1028.1 |
| 20260510042038 | 64 | 0 | 1.0 | 8.0 | 0.00 | 0.00 | 0.00 | 51 | 1028.1 |
| 20260510041551 | 65 | 0 | 4.0 | 8.0 | 0.00 | 0.00 | 0.00 | 49 | 1028.2 |
| 20260510041039 | 65 | 79 | 1.0 | 6.0 | 0.00 | 0.00 | 0.00 | 49 | 1028.3 |
| 20260510040537 | 66 | 124 | 0.0 | 7.0 | 0.00 | 0.00 | 0.00 | 49 | 1028.3 |
| 20260510035539 | 65 | 127 | 2.0 | 7.0 | 0.00 | 0.00 | 0.00 | 51 | 1028.3 |
| 20260510035040 | 64 | 49 | 0.0 | 3.0 | 0.00 | 0.00 | 0.00 | 53 | 1028.4 |
| 20260510034548 | 65 | 56 | 1.0 | 7.0 | 0.00 | 0.00 | 0.00 | 51 | 1028.5 |
| 20260510034040 | 64 | 0 | 2.0 | 7.0 | 0.00 | 0.00 | 0.00 | 54 | 1028.6 |
| 20260510033542 | 63 | 102 | 2.0 | 6.0 | 0.00 | 0.00 | 0.00 | 56 | 1028.7 |
| 20260510033056 | 63 | 122 | 2.0 | 8.0 | 0.00 | 0.00 | 0.00 | 54 | 1028.6 |
| 20260510032539 | 63 | 126 | 4.0 | 8.0 | 0.00 | 0.00 | 0.00 | 53 | 1028.7 |
| 20260510032040 | 63 | 87 | 1.0 | 2.0 | 0.00 | 0.00 | 0.00 | 54 | 1028.8 |
| 20260510031555 | 63 | 65 | 1.0 | 4.0 | 0.00 | 0.00 | 0.00 | 54 | 1028.8 |
| 20260510031040 | 63 | 65 | 1.0 | 8.0 | 0.00 | 0.00 | 0.00 | 55 | 1029.0 |
| 20260510030539 | 62 | 58 | 1.0 | 10.0 | 0.00 | 0.00 | 0.00 | 56 | 1029.0 |
| 20260510030059 | 62 | 183 | 2.0 | 10.0 | 0.00 | 0.00 | 0.00 | 57 | 1029.1 |
| 20260510025539 | 61 | 176 | 2.0 | 6.0 | 0.00 | 0.00 | 0.00 | 59 | 1029.1 |
| 20260510025040 | 61 | 142 | 2.0 | 7.0 | 0.00 | 0.00 | 0.00 | 58 | 1029.3 |
| 20260510024554 | 61 | 147 | 4.0 | 8.0 | 0.00 | 0.00 | 0.00 | 59 | 1029.4 |
| 20260510024041 | 61 | 174 | 4.0 | 8.0 | 0.00 | 0.00 | 0.00 | 60 | 1029.5 |
| 20260510023539 | 61 | 144 | 3.0 | 6.0 | 0.00 | 0.00 | 0.00 | 60 | 1029.6 |
| 20260510023052 | 61 | 135 | 3.0 | 5.0 | 0.00 | 0.00 | 0.00 | 59 | 1029.6 |
| 20260510022540 | 61 | 98 | 2.0 | 5.0 | 0.00 | 0.00 | 0.00 | 58 | 1029.8 |
| 20260510022038 | 61 | 123 | 2.0 | 5.0 | 0.00 | 0.00 | 0.00 | 58 | 1030.0 |
| 20260510021642 | 61 | 139 | 1.0 | 5.0 | 0.00 | 0.00 | 0.00 | 58 | 1029.9 |
| 20260510021039 | 61 | 103 | 2.0 | 5.0 | 0.00 | 0.00 | 0.00 | 58 | 1029.9 |
| 20260510020541 | 61 | 147 | 2.0 | 5.0 | 0.00 | 0.00 | 0.00 | 57 | 1030.0 |
| 20260510020059 | 61 | 89 | 0.0 | 1.0 | 0.00 | 0.00 | 0.00 | 59 | 1030.0 |
| 20260510015539 | 61 | 0 | 0.0 | 3.0 | 0.00 | 0.00 | 0.00 | 58 | 1030.2 |
| 20260510015040 | 60 | 89 | 1.0 | 4.0 | 0.00 | 0.00 | 0.00 | 59 | 1030.4 |
| 20260510014558 | 60 | 68 | 1.0 | 5.0 | 0.00 | 0.00 | 0.00 | 60 | 1030.3 |
| 20260510014040 | 60 | 127 | 2.0 | 6.0 | 0.00 | 0.00 | 0.00 | 58 | 1030.6 |
| 20260510013541 | 60 | 134 | 3.0 | 6.0 | 0.00 | 0.00 | 0.00 | 58 | 1030.5 |
| 20260510013100 | 61 | 129 | 1.0 | 4.0 | 0.00 | 0.00 | 0.00 | 59 | 1030.6 |
| 20260510012539 | 60 | 122 | 1.0 | 4.0 | 0.00 | 0.00 | 0.00 | 61 | 1030.6 |
| 20260510012039 | 60 | 54 | 1.0 | 3.0 | 0.00 | 0.00 | 0.00 | 60 | 1030.6 |
| 20260510011549 | 60 | 75 | 1.0 | 3.0 | 0.00 | 0.00 | 0.00 | 62 | 1030.6 |
| 20260510011040 | 59 | 96 | 0.0 | 3.0 | 0.00 | 0.00 | 0.00 | 63 | 1030.6 |
| 20260510010540 | 59 | 71 | 0.0 | 3.0 | 0.00 | 0.00 | 0.00 | 65 | 1030.5 |
| 20260510010057 | 59 | 96 | 1.0 | 3.0 | 0.00 | 0.00 | 0.00 | 65 | 1030.6 |
| 20260510005538 | 59 | 72 | 0.0 | 2.0 | 0.00 | 0.00 | 0.00 | 66 | 1030.5 |
| 20260510005037 | 58 | 72 | 1.0 | 3.0 | 0.00 | 0.00 | 0.00 | 65 | 1030.6 |
| 20260510004551 | 59 | 74 | 0.0 | 3.0 | 0.00 | 0.00 | 0.00 | 64 | 1030.5 |
| 20260510004037 | 59 | 74 | 0.0 | 3.0 | 0.00 | 0.00 | 0.00 | 64 | 1030.5 |
| 20260510003539 | 58 | 70 | 0.0 | 3.0 | 0.00 | 0.00 | 0.00 | 64 | 1030.4 |
| 20260510003048 | 58 | 68 | 1.0 | 2.0 | 0.00 | 0.00 | 0.00 | 64 | 1030.5 |
| 20260510002538 | 58 | 67 | 1.0 | 3.0 | 0.00 | 0.00 | 0.00 | 64 | 1030.6 |
| 20260510002036 | 58 | 67 | 0.0 | 3.0 | 0.00 | 0.00 | 0.00 | 65 | 1030.5 |
| 20260510001549 | 58 | 67 | 1.0 | 3.0 | 0.00 | 0.00 | 0.00 | 64 | 1030.5 |
| 20260510001040 | 58 | 103 | 0.0 | 3.0 | 0.00 | 0.00 | 0.00 | 65 | 1030.4 |
| 20260510000541 | 58 | 0 | 1.0 | 4.0 | 0.00 | 0.00 | 0.00 | 65 | 1030.5 |
| 20260510000051 | 58 | 70 | 0.0 | 4.0 | 0.00 | 0.00 | 0.00 | 65 | 1030.5 |
| 20260509235543 | 58 | 34 | 1.0 | 3.0 | 0.00 | 0.00 | 0.00 | 65 | 1030.4 |
| 20260509235039 | 58 | 89 | 0.0 | 2.0 | 0.00 | 0.00 | 0.00 | 67 | 1030.4 |
| 20260509234549 | 57 | 89 | 0.0 | 2.0 | 0.00 | 0.00 | 0.00 | 69 | 1030.4 |
| 20260509234038 | 57 | 89 | 1.0 | 2.0 | 0.00 | 0.00 | 0.00 | 68 | 1030.5 |
| 20260509233539 | 57 | 0 | 0.0 | 2.0 | 0.00 | 0.00 | 0.00 | 67 | 1030.3 |
| 20260509233051 | 57 | 110 | 1.0 | 2.0 | 0.00 | 0.00 | 0.00 | 66 | 1030.3 |
| 20260509232539 | 57 | 108 | 1.0 | 5.0 | 0.00 | 0.00 | 0.00 | 66 | 1030.3 |
| 20260509232039 | 57 | 108 | 0.0 | 5.0 | 0.00 | 0.00 | 0.00 | 68 | 1030.3 |
| 20260509231550 | 57 | 127 | 1.0 | 4.0 | 0.00 | 0.00 | 0.00 | 67 | 1030.2 |
| 20260509231040 | 57 | 133 | 1.0 | 3.0 | 0.00 | 0.00 | 0.00 | 66 | 1030.2 |
| 20260509230540 | 56 | 98 | 1.0 | 3.0 | 0.00 | 0.00 | 0.00 | 68 | 1030.2 |
| 20260509230052 | 56 | 98 | 0.0 | 4.0 | 0.00 | 0.00 | 0.00 | 68 | 1030.2 |
| 20260509225539 | 56 | 98 | 2.0 | 4.0 | 0.00 | 0.00 | 0.00 | 70 | 1030.1 |
| 20260509225039 | 56 | 103 | 2.0 | 3.0 | 0.00 | 0.00 | 0.00 | 72 | 1030.1 |
| 20260509224549 | 56 | 116 | 2.0 | 3.0 | 0.00 | 0.00 | 0.00 | 71 | 1030.0 |
| 20260509224039 | 55 | 110 | 0.0 | 2.0 | 0.00 | 0.00 | 0.00 | 73 | 1030.0 |
| 20260509223539 | 55 | 0 | 0.0 | 2.0 | 0.00 | 0.00 | 0.00 | 75 | 1030.0 |
| 20260509223048 | 55 | 0 | 0.0 | 1.0 | 0.00 | 0.00 | 0.00 | 77 | 1029.9 |
| 20260509222539 | 55 | 0 | 0.0 | 1.0 | 0.00 | 0.00 | 0.00 | 77 | 1029.8 |
| 20260509222039 | 55 | 0 | 0.0 | 1.0 | 0.00 | 0.00 | 0.00 | 77 | 1029.9 |
| 20260509221550 | 55 | 110 | 0.0 | 1.0 | 0.00 | 0.00 | 0.00 | 76 | 1029.8 |
| 20260509221038 | 55 | 0 | 0.0 | 0.0 | 0.00 | 0.00 | 0.00 | 74 | 1029.8 |
| 20260509220539 | 55 | 0 | 0.0 | 1.0 | 0.00 | 0.00 | 0.00 | 73 | 1029.7 |
| 20260509220050 | 55 | 0 | 0.0 | 2.0 | 0.00 | 0.00 | 0.00 | 73 | 1029.7 |
| 20260509215541 | 54 | 0 | 0.0 | 3.0 | 0.00 | 0.00 | 0.00 | 74 | 1029.7 |
| 20260509215039 | 54 | 47 | 0.0 | 3.0 | 0.00 | 0.00 | 0.00 | 74 | 1029.6 |
| 20260509214549 | 54 | 0 | 0.0 | 3.0 | 0.00 | 0.00 | 0.00 | 75 | 1029.6 |
| 20260509214038 | 54 | 0 | 0.0 | 1.0 | 0.00 | 0.00 | 0.00 | 77 | 1029.5 |
| 20260509213539 | 54 | 0 | 0.0 | 0.0 | 0.00 | 0.00 | 0.00 | 79 | 1029.5 |
| 20260509213105 | 54 | 0 | 0.0 | 0.0 | 0.00 | 0.00 | 0.00 | 79 | 1029.4 |
| 20260509212539 | 54 | 0 | 0.0 | 1.0 | 0.00 | 0.00 | 0.00 | 79 | 1029.4 |
| 20260509212040 | 53 | 0 | 0.0 | 1.0 | 0.00 | 0.00 | 0.00 | 81 | 1029.3 |
| 20260509211559 | 53 | 0 | 0.0 | 1.0 | 0.00 | 0.00 | 0.00 | 81 | 1029.3 |
| 20260509211040 | 53 | 0 | 0.0 | 1.0 | 0.00 | 0.00 | 0.00 | 82 | 1029.2 |
| 20260509210540 | 53 | 0 | 0.0 | 1.0 | 0.00 | 0.00 | 0.00 | 82 | 1029.1 |
| 20260509210051 | 53 | 0 | 0.0 | 1.0 | 0.00 | 0.00 | 0.00 | 82 | 1029.1 |
| 20260509205544 | 53 | 0 | 0.0 | 2.0 | 0.00 | 0.00 | 0.00 | 81 | 1029.0 |
| 20260509205040 | 53 | 84 | 0.0 | 2.0 | 0.00 | 0.00 | 0.00 | 79 | 1029.0 |
| 20260509204549 | 54 | 0 | 0.0 | 0.0 | 0.00 | 0.00 | 0.00 | 79 | 1028.9 |
| 20260509204038 | 54 | 0 | 0.0 | 0.0 | 0.00 | 0.00 | 0.00 | 79 | 1028.9 |
| 20260509203542 | 54 | 0 | 0.0 | 0.0 | 0.00 | 0.00 | 0.00 | 78 | 1028.7 |
| 20260509203057 | 54 | 0 | 0.0 | 0.0 | 0.00 | 0.00 | 0.00 | 78 | 1028.6 |
| 20260509202541 | 54 | 0 | 0.0 | 2.0 | 0.00 | 0.00 | 0.00 | 78 | 1028.7 |
| 20260509202042 | 54 | 0 | 0.0 | 3.0 | 0.00 | 0.00 | 0.00 | 78 | 1028.6 |
| 20260509201603 | 54 | 0 | 0.0 | 3.0 | 0.00 | 0.00 | 0.00 | 78 | 1028.6 |
| 20260509201040 | 54 | 124 | 1.0 | 3.0 | 0.00 | 0.00 | 0.00 | 79 | 1028.4 |
| 20260509200541 | 54 | 0 | 0.0 | 2.0 | 0.00 | 0.00 | 0.00 | 80 | 1028.4 |
| 20260509200055 | 54 | 0 | 0.0 | 2.0 | 0.00 | 0.00 | 0.00 | 81 | 1028.4 |
| 20260509195540 | 54 | 0 | 0.0 | 1.0 | 0.00 | 0.00 | 0.00 | 82 | 1028.4 |
| 20260509195040 | 54 | 0 | 0.0 | 2.0 | 0.00 | 0.00 | 0.00 | 82 | 1028.5 |
| 20260509194558 | 54 | 0 | 0.0 | 2.0 | 0.00 | 0.00 | 0.00 | 82 | 1028.3 |
| 20260509194040 | 53 | 0 | 0.0 | 1.0 | 0.00 | 0.00 | 0.00 | 83 | 1028.2 |
| 20260509193539 | 53 | 0 | 0.0 | 1.0 | 0.00 | 0.00 | 0.00 | 83 | 1028.2 |
| 20260509193059 | 54 | 0 | 0.0 | 1.0 | 0.00 | 0.00 | 0.00 | 83 | 1028.1 |
| 20260509192538 | 54 | 0 | 0.0 | 0.0 | 0.00 | 0.00 | 0.00 | 83 | 1028.2 |
| 20260509192040 | 54 | 0 | 0.0 | 0.0 | 0.00 | 0.00 | 0.00 | 83 | 1028.2 |
| 20260509191604 | 54 | 0 | 0.0 | 0.0 | 0.00 | 0.00 | 0.00 | 83 | 1028.1 |
| 20260509191039 | 54 | 0 | 0.0 | 0.0 | 0.00 | 0.00 | 0.00 | 84 | 1028.0 |
| 20260509190540 | 54 | 0 | 0.0 | 1.0 | 0.00 | 0.00 | 0.00 | 84 | 1027.9 |
| 20260509190053 | 54 | 0 | 0.0 | 1.0 | 0.00 | 0.00 | 0.00 | 84 | 1027.9 |
| 20260509185541 | 54 | 0 | 0.0 | 1.0 | 0.00 | 0.00 | 0.00 | 83 | 1027.9 |
| 20260509185041 | 54 | 0 | 0.0 | 1.0 | 0.00 | 0.00 | 0.00 | 83 | 1027.8 |
| 20260509184601 | 54 | 0 | 0.0 | 0.0 | 0.00 | 0.00 | 0.00 | 83 | 1027.8 |
| 20260509184040 | 54 | 0 | 0.0 | 0.0 | 0.00 | 0.00 | 0.00 | 83 | 1027.8 |
| 20260509183540 | 54 | 0 | 0.0 | 0.0 | 0.00 | 0.00 | 0.00 | 83 | 1027.8 |
| 20260509183056 | 54 | 0 | 0.0 | 0.0 | 0.00 | 0.00 | 0.00 | 83 | 1027.8 |
| 20260509182538 | 54 | 0 | 0.0 | 0.0 | 0.00 | 0.00 | 0.00 | 82 | 1027.7 |
| 20260509182040 | 54 | 0 | 0.0 | 0.0 | 0.00 | 0.00 | 0.00 | 82 | 1027.8 |
| 20260509181552 | 54 | 0 | 0.0 | 0.0 | 0.00 | 0.00 | 0.00 | 82 | 1027.7 |
| 20260509181041 | 54 | 0 | 0.0 | 0.0 | 0.00 | 0.00 | 0.00 | 82 | 1027.8 |
| 20260509180538 | 54 | 0 | 0.0 | 0.0 | 0.00 | 0.00 | 0.00 | 81 | 1027.7 |
| 20260509180058 | 54 | 0 | 0.0 | 0.0 | 0.00 | 0.00 | 0.00 | 81 | 1027.7 |
| 20260509175542 | 54 | 0 | 0.0 | 0.0 | 0.00 | 0.00 | 0.00 | 81 | 1027.7 |
| 20260509175039 | 54 | 0 | 0.0 | 0.0 | 0.00 | 0.00 | 0.00 | 80 | 1027.8 |
| 20260509174548 | 55 | 0 | 0.0 | 0.0 | 0.00 | 0.00 | 0.00 | 80 | 1027.9 |
| 20260509174040 | 55 | 0 | 0.0 | 1.0 | 0.00 | 0.00 | 0.00 | 80 | 1027.9 |
| 20260509173538 | 55 | 0 | 0.0 | 2.0 | 0.00 | 0.00 | 0.00 | 80 | 1027.9 |
| 20260509173102 | 55 | 84 | 0.0 | 2.0 | 0.00 | 0.00 | 0.00 | 81 | 1027.9 |
| 20260509172540 | 55 | 0 | 0.0 | 1.0 | 0.00 | 0.00 | 0.00 | 80 | 1027.9 |
| 20260509172040 | 55 | 0 | 0.0 | 1.0 | 0.00 | 0.00 | 0.00 | 80 | 1027.9 |
| 20260509171547 | 55 | 82 | 0.0 | 2.0 | 0.00 | 0.00 | 0.00 | 81 | 1027.9 |
| 20260509171043 | 55 | 0 | 0.0 | 2.0 | 0.00 | 0.00 | 0.00 | 81 | 1027.9 |
| 20260509170539 | 55 | 0 | 0.0 | 1.0 | 0.00 | 0.00 | 0.00 | 82 | 1027.9 |
| 20260509170047 | 55 | 0 | 0.0 | 2.0 | 0.00 | 0.00 | 0.00 | 83 | 1027.9 |
| 20260509165539 | 56 | 0 | 0.0 | 3.0 | 0.00 | 0.00 | 0.00 | 83 | 1028.0 |
| 20260509165039 | 56 | 124 | 1.0 | 3.0 | 0.00 | 0.00 | 0.00 | 83 | 1028.0 |
| 20260509164551 | 55 | 124 | 2.0 | 3.0 | 0.00 | 0.00 | 0.00 | 84 | 1028.1 |
| 20260509164038 | 55 | 124 | 1.0 | 3.0 | 0.00 | 0.00 | 0.00 | 84 | 1028.0 |
| 20260509163538 | 55 | 124 | 2.0 | 5.0 | 0.00 | 0.00 | 0.00 | 85 | 1028.1 |
| 20260509163052 | 55 | 124 | 2.0 | 5.0 | 0.00 | 0.00 | 0.00 | 86 | 1028.1 |
| 20260509162539 | 55 | 98 | 1.0 | 3.0 | 0.00 | 0.00 | 0.00 | 86 | 1028.1 |
| 20260509162039 | 55 | 97 | 1.0 | 2.0 | 0.00 | 0.00 | 0.00 | 86 | 1028.2 |
| 20260509161601 | 55 | 98 | 1.0 | 2.0 | 0.00 | 0.00 | 0.00 | 86 | 1028.1 |
| 20260509161039 | 55 | 97 | 1.0 | 2.0 | 0.00 | 0.00 | 0.00 | 86 | 1028.1 |
| 20260509160541 | 54 | 97 | 0.0 | 2.0 | 0.00 | 0.00 | 0.00 | 87 | 1028.1 |
| 20260509160058 | 54 | 97 | 0.0 | 1.0 | 0.00 | 0.00 | 0.00 | 87 | 1028.1 |
| 20260509155539 | 54 | 0 | 0.0 | 1.0 | 0.00 | 0.00 | 0.00 | 88 | 1028.2 |
| 20260509155039 | 54 | 0 | 0.0 | 2.0 | 0.00 | 0.00 | 0.00 | 88 | 1028.2 |
| 20260509154552 | 54 | 0 | 0.0 | 2.0 | 0.00 | 0.00 | 0.00 | 88 | 1028.2 |
| 20260509154040 | 54 | 0 | 0.0 | 2.0 | 0.00 | 0.00 | 0.00 | 89 | 1028.3 |
| 20260509153539 | 54 | 0 | 0.0 | 2.0 | 0.00 | 0.00 | 0.00 | 89 | 1028.3 |
| 20260509153059 | 54 | 44 | 1.0 | 2.0 | 0.00 | 0.00 | 0.00 | 89 | 1028.3 |
| 20260509152540 | 54 | 0 | 0.0 | 1.0 | 0.00 | 0.00 | 0.00 | 89 | 1028.3 |
| 20260509152039 | 54 | 0 | 0.0 | 2.0 | 0.00 | 0.00 | 0.00 | 89 | 1028.4 |
| 20260509151552 | 55 | 122 | 0.0 | 2.0 | 0.00 | 0.00 | 0.00 | 89 | 1028.5 |
| 20260509151039 | 55 | 130 | 1.0 | 2.0 | 0.00 | 0.00 | 0.00 | 89 | 1028.6 |
| 20260509150539 | 55 | 132 | 1.0 | 2.0 | 0.00 | 0.00 | 0.00 | 89 | 1028.6 |
| 20260509150049 | 55 | 132 | 1.0 | 2.0 | 0.00 | 0.00 | 0.00 | 89 | 1028.7 |
| 20260509145540 | 55 | 132 | 1.0 | 2.0 | 0.00 | 0.00 | 0.00 | 89 | 1028.8 |
| 20260509145040 | 55 | 132 | 1.0 | 3.0 | 0.00 | 0.00 | 0.00 | 89 | 1028.8 |
| 20260509144555 | 55 | 132 | 2.0 | 4.0 | 0.00 | 0.00 | 0.00 | 89 | 1028.7 |
| 20260509144039 | 55 | 133 | 2.0 | 4.0 | 0.00 | 0.00 | 0.00 | 89 | 1028.8 |
| 20260509143540 | 55 | 122 | 2.0 | 4.0 | 0.00 | 0.00 | 0.00 | 89 | 1028.8 |
| 20260509143058 | 55 | 112 | 2.0 | 3.0 | 0.00 | 0.00 | 0.00 | 89 | 1028.8 |
| 20260509142540 | 55 | 111 | 1.0 | 3.0 | 0.00 | 0.00 | 0.00 | 89 | 1028.9 |
| 20260509142040 | 55 | 111 | 2.0 | 3.0 | 0.00 | 0.00 | 0.00 | 89 | 1028.9 |
| 20260509141550 | 55 | 111 | 1.0 | 3.0 | 0.00 | 0.00 | 0.00 | 89 | 1028.8 |
| 20260509141041 | 55 | 111 | 2.0 | 3.0 | 0.00 | 0.00 | 0.00 | 89 | 1028.9 |
| 20260509140542 | 55 | 111 | 2.0 | 3.0 | 0.00 | 0.00 | 0.00 | 89 | 1029.0 |
| 20260509140059 | 55 | 111 | 1.0 | 2.0 | 0.00 | 0.00 | 0.00 | 89 | 1028.9 |
| 20260509135539 | 55 | 111 | 1.0 | 2.0 | 0.00 | 0.00 | 0.00 | 89 | 1028.9 |
| 20260509135040 | 55 | 111 | 1.0 | 2.0 | 0.00 | 0.00 | 0.00 | 89 | 1028.8 |
| 20260509134554 | 55 | 0 | 0.0 | 1.0 | 0.00 | 0.00 | 0.00 | 89 | 1028.9 |
| 20260509134039 | 55 | 0 | 0.0 | 1.0 | 0.00 | 0.00 | 0.00 | 89 | 1028.8 |
| 20260509133539 | 55 | 0 | 0.0 | 3.0 | 0.00 | 0.00 | 0.00 | 89 | 1028.8 |
| 20260509133052 | 55 | 0 | 1.0 | 4.0 | 0.00 | 0.00 | 0.00 | 89 | 1028.9 |
| 20260509132540 | 55 | 112 | 2.0 | 4.0 | 0.00 | 0.00 | 0.00 | 89 | 1028.9 |
| 20260509132040 | 55 | 103 | 3.0 | 4.0 | 0.00 | 0.00 | 0.00 | 89 | 1029.0 |
| 20260509131555 | 55 | 129 | 3.0 | 6.0 | 0.00 | 0.00 | 0.00 | 88 | 1029.1 |
| 20260509131039 | 56 | 124 | 3.0 | 8.0 | 0.00 | 0.00 | 0.00 | 87 | 1029.0 |
| 20260509130539 | 56 | 125 | 4.0 | 10.0 | 0.00 | 0.00 | 0.00 | 85 | 1029.0 |
| 20260509130048 | 56 | 145 | 6.0 | 10.0 | 0.00 | 0.00 | 0.00 | 83 | 1029.0 |
| 20260509125539 | 57 | 132 | 6.0 | 10.0 | 0.00 | 0.00 | 0.00 | 82 | 1029.0 |
| 20260509125039 | 57 | 136 | 5.0 | 7.0 | 0.00 | 0.00 | 0.00 | 82 | 1029.0 |
| 20260509124551 | 57 | 134 | 5.0 | 8.0 | 0.00 | 0.00 | 0.00 | 82 | 1029.0 |
| 20260509124040 | 57 | 143 | 5.0 | 8.0 | 0.00 | 0.00 | 0.00 | 82 | 1028.9 |
| 20260509123540 | 57 | 145 | 5.0 | 8.0 | 0.00 | 0.00 | 0.00 | 82 | 1028.8 |
| 20260509123050 | 57 | 148 | 6.0 | 8.0 | 0.00 | 0.00 | 0.00 | 81 | 1028.9 |
| 20260509122541 | 57 | 136 | 5.0 | 8.0 | 0.00 | 0.00 | 0.00 | 81 | 1028.8 |
| 20260509122040 | 57 | 143 | 5.0 | 9.0 | 0.00 | 0.00 | 0.00 | 81 | 1029.0 |
| 20260509121550 | 57 | 141 | 5.0 | 9.0 | 0.00 | 0.00 | 0.00 | 81 | 1028.9 |
| 20260509121041 | 57 | 152 | 5.0 | 8.0 | 0.00 | 0.00 | 0.00 | 80 | 1029.1 |
| 20260509120541 | 57 | 136 | 5.0 | 9.0 | 0.00 | 0.00 | 0.00 | 79 | 1028.9 |
| 20260509120053 | 57 | 145 | 5.0 | 9.0 | 0.00 | 0.00 | 0.00 | 79 | 1029.0 |
| 20260509115539 | 57 | 140 | 5.0 | 9.0 | 0.00 | 0.00 | 0.00 | 79 | 1028.9 |
| 20260509115039 | 57 | 140 | 7.0 | 9.0 | 0.00 | 0.00 | 0.00 | 79 | 1028.9 |
| 20260509114546 | 57 | 131 | 5.0 | 8.0 | 0.00 | 0.00 | 0.00 | 79 | 1028.9 |
| 20260509114040 | 57 | 148 | 4.0 | 8.0 | 0.00 | 0.00 | 0.00 | 78 | 1028.9 |
| 20260509113539 | 57 | 142 | 5.0 | 8.0 | 0.00 | 0.00 | 0.00 | 78 | 1029.0 |
| 20260509113050 | 57 | 146 | 5.0 | 8.0 | 0.00 | 0.00 | 0.00 | 78 | 1028.9 |
| 20260509112540 | 57 | 139 | 5.0 | 8.0 | 0.00 | 0.00 | 0.00 | 78 | 1029.0 |
| 20260509112041 | 57 | 132 | 5.0 | 8.0 | 0.00 | 0.00 | 0.00 | 78 | 1029.0 |
| 20260509111544 | 57 | 150 | 5.0 | 8.0 | 0.00 | 0.00 | 0.00 | 78 | 1029.0 |
| 20260509111041 | 57 | 139 | 4.0 | 7.0 | 0.00 | 0.00 | 0.00 | 78 | 1029.0 |
| 20260509110540 | 57 | 143 | 5.0 | 7.0 | 0.00 | 0.00 | 0.00 | 78 | 1029.1 |
| 20260509110049 | 57 | 143 | 4.0 | 7.0 | 0.00 | 0.00 | 0.00 | 78 | 1029.1 |
| 20260509105540 | 57 | 147 | 4.0 | 7.0 | 0.00 | 0.00 | 0.00 | 78 | 1029.1 |
| 20260509105040 | 57 | 141 | 4.0 | 6.0 | 0.00 | 0.00 | 0.00 | 78 | 1029.1 |
| 20260509104554 | 57 | 135 | 4.0 | 6.0 | 0.00 | 0.00 | 0.00 | 78 | 1029.1 |
| 20260509104042 | 57 | 142 | 4.0 | 7.0 | 0.00 | 0.00 | 0.00 | 78 | 1029.0 |
| 20260509103539 | 57 | 129 | 4.0 | 7.0 | 0.00 | 0.00 | 0.00 | 77 | 1029.0 |
| 20260509103104 | 58 | 144 | 3.0 | 5.0 | 0.00 | 0.00 | 0.00 | 77 | 1028.9 |
| 20260509102539 | 58 | 139 | 3.0 | 5.0 | 0.00 | 0.00 | 0.00 | 77 | 1028.8 |
| 20260509102040 | 58 | 130 | 3.0 | 6.0 | 0.00 | 0.00 | 0.00 | 76 | 1028.8 |
| 20260509101546 | 58 | 151 | 3.0 | 7.0 | 0.00 | 0.00 | 0.00 | 76 | 1028.7 |
| 20260509101040 | 58 | 139 | 4.0 | 7.0 | 0.00 | 0.00 | 0.00 | 76 | 1028.6 |
| 20260509100540 | 58 | 143 | 4.0 | 7.0 | 0.00 | 0.00 | 0.00 | 76 | 1028.7 |
| 20260509100048 | 58 | 143 | 4.0 | 7.0 | 0.00 | 0.00 | 0.00 | 76 | 1028.7 |
| 20260509095538 | 58 | 146 | 4.0 | 8.0 | 0.00 | 0.00 | 0.00 | 76 | 1028.6 |
| 20260509095039 | 58 | 136 | 5.0 | 8.0 | 0.00 | 0.00 | 0.00 | 75 | 1028.6 |
| 20260509094600 | 58 | 144 | 5.0 | 8.0 | 0.00 | 0.00 | 0.00 | 75 | 1028.6 |
| 20260509094039 | 58 | 149 | 4.0 | 9.0 | 0.00 | 0.00 | 0.00 | 75 | 1028.6 |
| 20260509093540 | 58 | 134 | 6.0 | 11.0 | 0.00 | 0.00 | 0.00 | 75 | 1028.6 |
| 20260509093053 | 58 | 140 | 6.0 | 11.0 | 0.00 | 0.00 | 0.00 | 75 | 1028.7 |
| 20260509092544 | 58 | 154 | 7.0 | 13.0 | 0.00 | 0.00 | 0.00 | 74 | 1028.6 |
| 20260509092043 | 58 | 141 | 7.0 | 13.0 | 0.00 | 0.00 | 0.00 | 74 | 1028.6 |
| 20260509091556 | 59 | 148 | 7.0 | 12.0 | 0.00 | 0.00 | 0.00 | 73 | 1028.6 |
| 20260509091039 | 59 | 150 | 7.0 | 12.0 | 0.00 | 0.00 | 0.00 | 73 | 1028.5 |
| 20260509090540 | 59 | 146 | 7.0 | 12.0 | 0.00 | 0.00 | 0.00 | 73 | 1028.6 |
| 20260509090057 | 59 | 148 | 7.0 | 10.0 | 0.00 | 0.00 | 0.00 | 73 | 1028.5 |
| 20260509085543 | 59 | 153 | 6.0 | 11.0 | 0.00 | 0.00 | 0.00 | 72 | 1028.6 |
| 20260509085039 | 59 | 147 | 7.0 | 11.0 | 0.00 | 0.00 | 0.00 | 72 | 1028.6 |
| 20260509084604 | 59 | 153 | 6.0 | 11.0 | 0.00 | 0.00 | 0.00 | 71 | 1028.7 |
| 20260509084039 | 60 | 153 | 7.0 | 10.0 | 0.00 | 0.00 | 0.00 | 70 | 1028.5 |
| 20260509083540 | 60 | 137 | 6.0 | 10.0 | 0.00 | 0.00 | 0.00 | 69 | 1028.5 |
| 20260509083104 | 60 | 145 | 7.0 | 10.0 | 0.00 | 0.00 | 0.00 | 68 | 1028.5 |
| 20260509082541 | 60 | 150 | 8.0 | 10.0 | 0.00 | 0.00 | 0.00 | 67 | 1028.4 |
| 20260509082043 | 60 | 138 | 6.0 | 10.0 | 0.00 | 0.00 | 0.00 | 67 | 1028.3 |
| 20260509081554 | 60 | 146 | 7.0 | 10.0 | 0.00 | 0.00 | 0.00 | 67 | 1028.4 |
| 20260509081040 | 60 | 149 | 6.0 | 9.0 | 0.00 | 0.00 | 0.00 | 66 | 1028.2 |
| 20260509080540 | 61 | 143 | 7.0 | 10.0 | 0.00 | 0.00 | 0.00 | 66 | 1028.2 |
| 20260509080052 | 61 | 142 | 7.0 | 12.0 | 0.00 | 0.00 | 0.00 | 66 | 1028.2 |
| 20260509075540 | 61 | 137 | 7.0 | 12.0 | 0.00 | 0.00 | 0.00 | 67 | 1028.3 |
| 20260509075041 | 61 | 156 | 7.0 | 12.0 | 0.00 | 0.00 | 0.00 | 67 | 1028.2 |
| 20260509074609 | 61 | 128 | 8.0 | 11.0 | 0.00 | 0.00 | 0.00 | 67 | 1028.2 |
| 20260509074042 | 61 | 137 | 7.0 | 11.0 | 0.00 | 0.00 | 0.00 | 66 | 1028.1 |
| 20260509073543 | 61 | 147 | 7.0 | 13.0 | 0.00 | 0.00 | 0.00 | 66 | 1028.1 |
| 20260509073103 | 61 | 141 | 8.0 | 13.0 | 0.00 | 0.00 | 0.00 | 66 | 1028.1 |
| 20260509072541 | 61 | 160 | 8.0 | 13.0 | 0.00 | 0.00 | 0.00 | 66 | 1028.0 |
| 20260509072040 | 61 | 141 | 8.0 | 13.0 | 0.00 | 0.00 | 0.00 | 65 | 1027.9 |
| 20260509071556 | 61 | 153 | 9.0 | 13.0 | 0.00 | 0.00 | 0.00 | 65 | 1027.9 |
| 20260509071041 | 62 | 141 | 8.0 | 13.0 | 0.00 | 0.00 | 0.00 | 65 | 1027.8 |
| 20260509070541 | 62 | 152 | 7.0 | 14.0 | 0.00 | 0.00 | 0.00 | 65 | 1027.8 |
| 20260509070057 | 62 | 156 | 6.0 | 14.0 | 0.00 | 0.00 | 0.00 | 65 | 1027.8 |
| 20260509065542 | 62 | 150 | 8.0 | 13.0 | 0.00 | 0.00 | 0.00 | 65 | 1027.8 |
| 20260509065040 | 62 | 176 | 8.0 | 13.0 | 0.00 | 0.00 | 0.00 | 64 | 1027.8 |
| 20260509064547 | 62 | 160 | 9.0 | 13.0 | 0.00 | 0.00 | 0.00 | 64 | 1027.7 |
| 20260509064041 | 62 | 135 | 7.0 | 11.0 | 0.00 | 0.00 | 0.00 | 64 | 1027.8 |
| 20260509063540 | 62 | 131 | 8.0 | 11.0 | 0.00 | 0.00 | 0.00 | 63 | 1027.7 |
| 20260509063058 | 63 | 134 | 8.0 | 11.0 | 0.00 | 0.00 | 0.00 | 62 | 1027.6 |
| 20260509062541 | 63 | 132 | 7.0 | 11.0 | 0.00 | 0.00 | 0.00 | 62 | 1027.6 |
| 20260509062042 | 63 | 138 | 6.0 | 11.0 | 0.00 | 0.00 | 0.00 | 63 | 1027.6 |
| 20260509061548 | 63 | 134 | 7.0 | 11.0 | 0.00 | 0.00 | 0.00 | 62 | 1027.6 |
| 20260509061041 | 63 | 143 | 5.0 | 8.0 | 0.00 | 0.00 | 0.00 | 62 | 1027.4 |
| 20260509060545 | 63 | 135 | 5.0 | 9.0 | 0.00 | 0.00 | 0.00 | 62 | 1027.5 |
| 20260509060107 | 63 | 172 | 6.0 | 9.0 | 0.00 | 0.00 | 0.00 | 62 | 1027.6 |
| 20260509055544 | 63 | 142 | 5.0 | 9.0 | 0.00 | 0.00 | 0.00 | 62 | 1027.6 |
| 20260509055040 | 63 | 191 | 3.0 | 6.0 | 0.00 | 0.00 | 0.00 | 62 | 1027.5 |
| 20260509054552 | 63 | 148 | 2.0 | 6.0 | 0.00 | 0.00 | 0.00 | 62 | 1027.5 |
| 20260509054037 | 63 | 178 | 3.0 | 7.0 | 0.00 | 0.00 | 0.00 | 62 | 1027.5 |
| 20260509053541 | 63 | 162 | 4.0 | 7.0 | 0.00 | 0.00 | 0.00 | 62 | 1027.5 |
| 20260509053057 | 63 | 179 | 2.0 | 8.0 | 0.00 | 0.00 | 0.00 | 63 | 1027.6 |
| 20260509052540 | 63 | 213 | 4.0 | 8.0 | 0.00 | 0.00 | 0.00 | 63 | 1027.6 |
| 20260509052040 | 63 | 178 | 2.0 | 5.0 | 0.00 | 0.00 | 0.00 | 64 | 1027.6 |
| 20260509051549 | 63 | 157 | 2.0 | 5.0 | 0.00 | 0.00 | 0.00 | 63 | 1027.7 |
| 20260509051043 | 63 | 146 | 2.0 | 5.0 | 0.00 | 0.00 | 0.00 | 63 | 1027.7 |
| 20260509050540 | 63 | 142 | 2.0 | 7.0 | 0.00 | 0.00 | 0.00 | 63 | 1027.7 |
| 20260509050052 | 63 | 169 | 3.0 | 7.0 | 0.00 | 0.00 | 0.00 | 63 | 1027.8 |
| 20260509045543 | 63 | 167 | 4.0 | 7.0 | 0.00 | 0.00 | 0.00 | 62 | 1027.8 |
| 20260509045040 | 63 | 210 | 4.0 | 6.0 | 0.00 | 0.00 | 0.00 | 62 | 1027.7 |